Location: Unspecified
(48.2082°N, 0.0000°E)
Time: 05:46:05
(UTC+00:00)

A-11 Canister half - Pass Details

Date: 17 August 2020
Orbit: 1514 x 1686 km, 47.2° (Epoch: 21 September)

Event Time Altitude Azimuth Distance (km) Brightness Sun altitude
Rises 20:17:34 0° 283° (WNW) 4,783 13.0 -10.9°
Reaches altitude 10° 20:20:37 10° 281° (WNW) 3,819 12.2 -11.3°
Maximum altitude 20:30:20 72° 200° (SSW) 1,717 9.2 -12.6°
Enters shadow 20:38:38 17° 121° (ESE) 3,413 10.2 -13.7°
